Wind_Speed
16 16 17 18 18 18 18 18 19 21 21 22 22 22 22 22 22 22 23 23 24 24 25 25 25 25 25 26 26 26 27 27 28 28 28 28 29 29
18 19 19 20 20 21 21 21 22 22 23 24 24 24 24 25 25 25 25 26 27 27 28 28 28 28 28 28 28 29 29 30 30 31 31 31 31 32
20 21 21 22 23 23 23 23 24 24 25 26 26 26 27 27 28 28 28 29 29 29 30 30 30 31 31 31 31 31 31 32 33 33 33 33 34 34
21 21 22 23 24 24 25 25 25 26 26 26 27 28 28 28 29 29 30 30 30 30 31 32 32 32 33 34 34 34 34 34 34 35 35 35 36 36
22 23 23 24 24 25 26 26 27 27 27 28 29 30 29 29 31 31 32 32 31 32 32 33 34 35 35 36 36 37 37 37 38 38 38 38 39 39
23 24 24 24 25 26 27 28 28 27 28 29 30 30 30 31 32 32 33 33 33 34 34 35 36 36 36 37 37 37 38 39 39 40 41 41 42 42
23 24 25 25 26 27 27 27 28 28 28 29 30 30 31 32 32 32 33 33 33 35 36 37 38 38 38 38 38 39 39 40 41 41 43 43 44 44
25 26 26 27 27 27 28 28 29 28 29 30 30 31 32 33 34 34 35 35 35 36 37 38 39 39 39 38 39 40 41 42 43 43 44 44 44 45
25 25 26 27 27 26 27 27 28 28 29 30 30 31 32 33 35 35 36 37 37 37 38 39 40 40 40 41 42 43 44 44 45 45 46 46 46 47
26 26 27 27 27 27 28 28 29 30 31 32 32 32 33 34 35 36 37 37 37 38 39 39 39 40 41 41 42 42 42 43 44 45 45 46 46 47
27 27 27 27 27 29 29 30 31 31 32 33 33 34 34 34 35 36 36 37 38 38 38 39 40 41 42 43 43 42 42 43 43 44 44 45 46 46
28 28 28 29 29 29 30 31 31 32 33 33 34 35 35 35 35 36 37 38 39 40 40 41 42 43 43 43 43 43 43 44 44 44 45 46 46 46
28 29 29 30 30 30 31 31 31 31 32 33 34 35 36 37 37 37 37 39 40 41 42 43 43 43 43 44 44 44 43 43 44 44 45 45 46 46
29 30 30 30 31 31 31 31 32 32 33 34 35 35 36 36 36 37 38 39 40 40 40 41 41 42 42 43 43 43 44 44 44 44 44 45 45 46
29 30 30 30 31 31 32 32 33 33 33 34 34 34 35 35 36 37 37 38 38 39 40 40 41 41 42 42 43 43 43 43 42 42 42 43 44 44
29 29 29 30 31 31 31 31 32 33 33 33 33 34 34 34 35 35 36 37 38 38 39 39 40 41 41 41 40 40 39 39 40 40 41 41 41 42
28 28 29 30 30 30 30 31 32 32 32 32 33 33 33 34 34 35 36 37 38 38 38 38 38 38 38 38 38 37 37 37 37 38 38 38 39 39
27 28 28 29 30 30 31 32 31 31 32 32 33 33 34 34 34 35 36 36 36 36 36 36 35 35 36 35 35 35 35 35 35 34 35 36 36 36
28 28 28 28 29 30 30 31 31 32 32 32 32 33 33 34 35 35 35 35 35 34 34 34 33 33 33 33 32 32 32 32 32 33 33 33 33 34
28 28 28 29 29 30 31 31 31 31 31 32 32 33 33 33 34 34 33 33 33 32 32 31 31 31 30 30 30 30 30 30 30 30 31 31 31 31
29 29 29 28 29 29 29 30 30 30 30 31 32 32 32 32 32 31 31 31 30 30 30 29 29 29 29 29 29 29 28 27 28 28 28 28 28 28
28 28 28 28 28 28 29 29 29 30 30 30 30 30 30 30 29 29 29 29 29 29 29 28 28 28 27 27 27 27 26 26 25 26 26 26 26 25
27 27 28 28 28 28 28 28 28 28 28 28 28 28 28 28 27 27 27 28 28 27 27 27 26 26 26 25 25 25 25 25 24 24 24 24 24 24
Wind_Direction
264 267 268 269 271 273 274 275 275 274 274 274 274 275 275 277 279 278 277 277 277 278 278 276 275 276 276 276 276 275 277 277 277 278 278 278 278 277
264 268 270 270 272 275 275 275 276 276 275 275 275 275 276 277 278 279 278 278 278 278 277 276 276 275 276 276 276 275 276 277 278 278 277 277 277 277
267 269 270 273 273 273 275 276 276 277 276 275 276 276 276 276 278 279 279 278 279 279 278 276 276 276 276 276 277 277 277 277 277 278 278 277 277 277
271 272 274 274 273 273 275 277 278 278 277 275 276 278 279 279 279 279 281 282 281 281 279 278 278 276 276 275 275 276 277 277 278 278 278 277 277 277
273 274 275 277 276 275 276 278 279 278 278 276 276 277 278 279 280 280 281 282 281 282 281 280 278 277 276 275 275 275 275 276 277 276 276 277 277 277
275 276 276 277 276 277 278 278 278 278 277 278 277 277 279 280 281 282 283 283 282 282 281 281 281 279 277 276 276 276 276 276 276 276 277 277 277 277
278 279 280 279 278 279 281 280 279 280 280 280 279 279 280 281 281 283 283 282 282 283 282 282 282 281 281 279 278 278 276 277 278 278 278 277 277 278
281 282 282 282 281 280 281 283 283 283 283 283 282 281 282 282 283 283 284 284 285 284 283 282 282 282 282 281 280 280 280 280 281 280 278 278 278 278
282 282 283 285 285 285 284 285 286 286 286 286 285 284 283 283 283 284 284 285 285 286 285 284 283 283 283 282 281 280 281 281 280 280 279 278 277 278
284 285 286 286 287 287 285 286 286 285 285 286 287 287 286 285 285 285 284 285 285 286 285 285 285 285 284 284 284 283 282 281 281 280 279 279 279 278
286 287 287 289 289 289 289 289 288 287 286 286 286 286 287 287 287 287 286 286 287 287 287 287 287 286 285 285 283 282 282 283 283 282 281 280 280 280
288 288 287 288 290 290 290 290 290 289 289 289 289 288 288 288 289 289 288 287 287 287 287 287 286 285 285 285 285 284 284 283 283 283 283 282 281 281
288 288 287 287 289 290 290 290 291 291 291 292 292 291 291 290 290 290 289 288 289 288 288 289 288 287 286 286 286 286 286 285 284 283 282 282 282 282
288 288 289 289 290 291 291 291 291 292 292 293 292 292 293 293 292 291 291 292 292 291 291 291 290 290 289 289 289 288 288 287 287 286 285 285 284 284
289 290 290 290 291 290 290 291 292 293 294 294 293 293 293 293 294 294 294 295 295 294 294 293 292 291 291 291 290 290 289 289 288 287 286 286 286 286
293 292 291 290 290 290 291 293 293 294 294 294 294 294 294 295 295 296 297 297 297 296 296 295 294 294 293 293 292 292 291 290 289 288 287 287 287 287
296 295 294 293 293 293 293 294 295 295 295 295 296 297 298 298 299 299 300 300 300 300 298 297 297 296 296 295 295 294 293 292 291 291 290 289 288 288
298 296 295 296 296 296 296 296 296 296 297 298 299 299 300 301 301 301 301 302 302 301 301 300 299 298 298 298 297 296 295 294 293 292 291 292 291 291
299 299 299 300 300 299 300 300 299 299 300 300 301 301 301 302 302 302 303 303 304 304 304 303 302 302 301 301 301 299 298 297 296 295 295 296 295 295
299 300 300 301 301 302 302 302 301 301 301 301 302 302 302 303 303 304 304 304 304 305 305 306 305 305 304 303 303 302 301 300 299 299 299 298 298 297
300 301 301 301 302 303 302 302 302 302 302 302 303 303 304 304 304 305 306 306 306 306 307 308 307 307 305 305 305 304 304 303 302 303 303 302 302 302
303 303 303 303 304 304 303 304 304 304 303 304 305 305 306 306 307 307 308 309 309 309 310 309 308 308 308 308 307 307 306 305 305 305 306 306 306 305
304 305 305 305 305 305 305 305 305 306 307 308 308 308 308 309 310 310 311 311 312 312 313 313 312 311 311 310 310 309 309 309 309 309 310 310 309 309
Height
5892 5892 5891 5891 5891 5890 5890 5889 5889 5887 5887 5886 5885 5884 5883 5882 5881 5880 5879 5879 5877 5876 5876 5874 5874 5873 5872 5871 5870 5869 5868 5867 5866 5865 5864 5863 5862 5861
5887 5887 5887 5887 5887 5886 5885 5884 5883 5882 5881 5880 5879 5878 5877 5876 5875 5874 5873 5872 5871 5870 5869 5868 5867 5866 5865 5864 5863 5862 5861 5860 5858 5857 5856 5855 5854 5853
5883 5883 5882 5882 5881 5880 5879 5878 5877 5876 5875 5874 5873 5872 5871 5869 5868 5867 5866 5865 5863 5862 5861 5860 5859 5858 5857 5856 5855 5853 5852 5851 5850 5849 5847 5846 5845 5844
5878 5877 5877 5876 5875 5874 5873 5872 5871 5869 5868 5867 5866 5865 5863 5862 5861 5860 5858 5857 5855 5854 5853 5851 5850 5849 5848 5847 5845 5844 5843 5842 5840 5839 5838 5836 5835 5833
5872 5872 5871 5870 5868 5867 5866 5865 5864 5862 5861 5860 5859 5857 5856 5855 5853 5852 5850 5848 5847 5845 5844 5842 5841 5839 5838 5837 5835 5834 5833 5832 5830 5829 5827 5826 5824 5823
5867 5866 5864 5863 5862 5860 5859 5858 5856 5855 5854 5852 5851 5850 5848 5847 5845 5844 5842 5840 5839 5837 5835 5833 5831 5829 5828 5827 5825 5824 5823 5821 5819 5817 5816 5814 5812 5811
5861 5860 5858 5857 5855 5853 5852 5851 5849 5847 5846 5845 5844 5842 5841 5839 5837 5835 5834 5832 5829 5828 5825 5823 5821 5819 5818 5816 5814 5813 5811 5810 5808 5806 5804 5802 5800 5798
5855 5853 5851 5850 5848 5846 5845 5843 5842 5840 5839 5838 5836 5835 5833 5831 5829 5826 5825 5823 5820 5818 5815 5813 5811 5809 5807 5805 5803 5801 5800 5798 5796 5794 5791 5789 5788 5786
5848 5846 5845 5843 5841 5840 5838 5836 5835 5833 5832 5830 5828 5826 5824 5822 5819 5817 5815 5813 5810 5808 5805 5803 5800 5798 5796 5794 5792 5790 5788 5785 5783 5781 5779 5776 5774 5773
5842 5840 5838 5836 5834 5833 5831 5829 5828 5826 5824 5821 5819 5817 5815 5812 5810 5808 5805 5803 5800 5798 5795 5792 5790 5787 5785 5782 5780 5778 5775 5773 5771 5768 5766 5763 5761 5759
5835 5833 5831 5830 5828 5826 5823 5821 5819 5817 5815 5812 5810 5808 5805 5803 5800 5798 5795 5792 5790 5787 5784 5781 5779 5776 5773 5771 5768 5765 5763 5760 5758 5755 5752 5750 5748 5745
5829 5826 5824 5822 5820 5818 5816 5813 5811 5808 5806 5803 5801 5798 5796 5793 5791 5788 5785 5782 5779 5776 5773 5770 5767 5764 5761 5758 5755 5753 5750 5747 5745 5742 5739 5737 5734 5731
5821 5819 5817 5814 5812 5810 5808 5805 5802 5799 5797 5794 5792 5789 5786 5783 5780 5777 5774 5771 5768 5765 5762 5759 5755 5752 5749 5746 5743 5739 5737 5734 5731 5728 5726 5723 5720 5717
5813 5811 5809 5806 5804 5802 5799 5796 5794 5791 5788 5785 5782 5779 5776 5773 5770 5767 5764 5760 5757 5753 5750 5746 5743 5739 5736 5732 5729 5726 5723 5720 5717 5714 5711 5709 5706 5703
5806 5803 5801 5798 5796 5793 5791 5788 5785 5782 5778 5776 5773 5770 5767 5763 5760 5757 5753 5749 5746 5742 5738 5735 5731 5727 5724 5720 5717 5713 5710 5707 5704 5701 5698 5695 5692 5690
5798 5795 5793 5790 5788 5785 5782 5779 5776 5773 5770 5767 5764 5760 5757 5754 5750 5747 5743 5739 5735 5731 5727 5723 5719 5715 5712 5708 5704 5700 5697 5694 5691 5688 5685 5682 5679 5676
5790 5787 5785 5782 5779 5776 5773 5771 5768 5764 5761 5758 5754 5751 5748 5744 5740 5736 5732 5728 5724 5720 5716 5712 5707 5703 5700 5696 5692 5689 5685 5682 5679 5676 5673 5670 5667 5664
5783 5780 5777 5774 5771 5768 5765 5762 5759 5755 5752 5749 5745 5742 5738 5734 5730 5726 5722 5718 5713 5709 5705 5701 5696 5693 5689 5686 5682 5678 5675 5672 5668 5665 5662 5659 5656 5652
5776 5773 5769 5766 5763 5760 5757 5753 5750 5746 5743 5739 5736 5732 5729 5725 5721 5717 5712 5708 5703 5699 5695 5691 5687 5683 5679 5676 5672 5668 5665 5661 5658 5655 5652 5649 5645 5642
5768 5765 5762 5758 5755 5752 5748 5745 5741 5737 5734 5730 5727 5723 5719 5715 5711 5707 5703 5698 5694 5690 5686 5682 5678 5674 5670 5667 5663 5659 5656 5652 5649 5646 5642 5639 5636 5632
5760 5757 5754 5750 5747 5744 5740 5736 5733 5729 5725 5722 5718 5714 5710 5706 5702 5698 5694 5690 5686 5682 5678 5674 5670 5666 5662 5659 5655 5651 5648 5644 5641 5637 5634 5631 5627 5624
5753 5750 5746 5743 5739 5736 5732 5728 5725 5721 5717 5713 5709 5705 5701 5697 5693 5689 5686 5682 5678 5674 5670 5666 5663 5659 5655 5652 5648 5644 5641 5637 5634 5630 5627 5623 5620 5616
5746 5742 5739 5735 5732 5728 5724 5720 5717 5713 5709 5705 5701 5697 5693 5689 5686 5682 5678 5675 5671 5667 5663 5659 5656 5652 5648 5645 5641 5637 5634 5630 5627 5624 5621 5617 5613 5610